Simultaneous Nadir Overpasses (SNOs) Predictions

Prediction of SNOs between NOAA-20 and NOAA-19 Satellite Orbit:

Table of predicted SNOs for the next 14.0 days since TLE Epoch: 3/23/2024
Index Date (NOAA-20) Time (NOAA-20) Lat,Lon (NOAA-20) SZA (NOAA-20 ) Date (NOAA-19) Time (NOAA-19) Lat,Lon (NOAA-19) SZA (NOAA-19 ) Distance(km) Time Diff (sec)
1 03/27/2024 06:03:26 73.60, 79.37 71.02 03/27/2024 06:02:12 73.59, 79.01 71.06 11.23 74
2 03/27/2024 06:54:11 -73.67,-113.49 108.91 03/27/2024 06:53:06 -73.66,-113.54 108.90 1.88 65
3 03/27/2024 07:44:51 73.72, 53.75 71.13 03/27/2024 07:44:08 73.70, 53.79 71.12 2.44 43
4 03/27/2024 08:35:34 -73.69,-138.88 108.92 03/27/2024 08:35:03 -73.72,-138.88 108.88 3.56 31
5 03/27/2024 09:26:14 73.74, 28.36 71.12 03/27/2024 09:26:06 73.71, 28.33 71.10 2.78 8
6 03/27/2024 10:16:58 -73.76,-164.38 108.87 03/27/2024 10:17:01 -73.74,-164.33 108.90 3.06 3
7 03/27/2024 11:07:37 73.76, 2.97 71.12 03/27/2024 11:08:03 73.77, 2.99 71.13 2.20 26
8 03/27/2024 11:58:21 -73.78, 170.23 108.88 03/27/2024 11:58:59 -73.75, 170.21 108.91 3.33 38
9 03/27/2024 12:49:00 73.77, -22.42 71.11 03/27/2024 12:50:01 73.79, -22.46 71.11 1.82 61
10 03/27/2024 13:39:44 -73.80, 144.84 108.88 03/27/2024 13:40:56 -73.81, 144.87 108.89 1.79 72



Historial Predications of SNOs between NOAA-20 and NOAA-19
